Regional Weather Roundup
Issued by NWS State College, PA

Home | Current Version | Previous Version | Graphics & Text | Print | Product List | Glossary On
Versions: 1 2 3 4 5 6 7 8 9 10 11 12 13 14 15 16 17 18 19 20 21 22 23 24 25 26 27 28 29 30 31 32 33 34 35 36 37 38 39 40 41 42 43 44 45 46 47 48 49 50
000
ASUS41 KCTP 200503
RWRCTP
REGIONAL WEATHER ROUNDUP
NATIONAL WEATHER SERVICE STATE COLLEGE PA
100 AM EDT WED SEP 20 2017

Note: "fair" indicates few or no clouds below 12,000 feet with no
significant weather and/or obstructions to visibility.

* = STATION THAT DOES NOT REPORT PRECIPITATION /E.G. RAIN...SNOW...ETC/
    THUNDER OR FOG.

PAZ002>004-007>009-013>016-020>023-029>032-200600-
WESTERN PENNSYLVANIA

CITY           SKY/WX    TMP DP  RH WIND       PRES   REMARKS
ERIE           MOCLDY    65  62  90 CALM      29.97F
MEADVILLE      CLEAR     65  62  90 CALM      30.01S
FRANKLIN*      CLEAR     61  60  97 E3        30.02S
NEW CASTLE     CLOUDY    65  65 100 CALM      30.00S
BEAVER COUNTY  NOT AVBL
BUTLER*        CLEAR     60  59  96 CALM      30.00F
PITTSBURGH INT PTCLDY    66  63  90 CALM      29.99S
PITTSBURGH     CLEAR     67  60  78 CALM      29.99S
INDIANA*       CLEAR     61  59  94 CALM      30.03S
LATROBE        CLEAR     59  59 100 CALM      30.01R
WASHINGTON CO* CLOUDY    61  59  94 CALM      30.00S
$$

PAZ004>006-010>012-017>019-024>028-033>037-041-042-045-046-049>053-200600-
CENTRAL PENNSYLVANIA

CITY           SKY/WX    TMP DP  RH WIND       PRES   REMARKS
BRADFORD       CLEAR     54  54 100 CALM      30.04S
DUBOIS         CLEAR     61  56  83 CALM      30.02S
CLEARFIELD     CLEAR     59  58  96 CALM      30.02S
JOHNSTOWN      CLEAR     63  61  93 SW5       30.03F
ALTOONA        CLEAR     57  57 100 CALM      30.01F
STATE COLLEGE  PTCLDY    60  59  96 CALM      30.00S
WILLIAMSPORT   CLEAR     62  60  93 CALM      29.96F
SELINSGROVE    CLEAR     58  58 100 CALM      29.96F FOG
FT INDIANTOWN  MOCLDY    71  62  75 CALM      29.93F
CAPITAL CITY   CLOUDY    67  63  87 CALM      29.94S
HARRISBURG     MOCLDY    70  66  87 NW9       29.93S
YORK           CLOUDY    64  63  96 CALM      29.94S
$$

PAZ038>040-043-044-047-048-054-055-060>062-067>071-200600-
EASTERN PENNSYLVANIA

CITY           SKY/WX    TMP DP  RH WIND       PRES   REMARKS
SCRANTON       PTCLDY    64  61  90 E3        29.97S
MOUNT POCONO   PTCLDY    64  60  87 N9        29.99S
ALLENTOWN      CLOUDY    69  63  81 NW3       29.91S
QUAKERTOWN*    MOCLDY    68  64  88 N8        29.91S
READING        CLOUDY    71  66  84 N7        29.91S
LANCASTER      CLOUDY    72  64  76 N6        29.93R
COATESVILLE    PTCLDY    68  66  94 N8        29.93S
POTTSTOWN      NOT AVBL
BLUE BELL      CLOUDY    66  64  94 N3        29.88F
DOYLESTOWN     CLOUDY    69  64  84 N10       29.87
WILLOW GROVE   NOT AVBL
NORTH PHILA    MOCLDY    73  64  73 N14       29.86F
PHILADELPHIA   CLOUDY    72  64  76 N12       29.85F
$$




USA.gov is the U.S. government's official web portal to all federal, state and local government web resources and services.